Location: Helsinki
(60.1699°N, 24.9384°E)
Time: 00:00:30
(UTC+02:00)

Altair - Pass Details

Date: 27 October 2020
Orbit: 1502 x 1682 km, 47.2° (Epoch: 25 November)

Event Time Altitude Azimuth Distance (km) Brightness Sun altitude
Rises 10:26:27 0° 268° (W) 4,738 9.8 14.3°
Reaches altitude 10° 10:29:53 10° 259° (W) 3,779 9.5 14.4°
Maximum altitude 10:37:57 32° 202° (SSW) 2,513 9.5 14.8°
Drops below altitude 10° 10:46:16 10° 145° (SE) 3,891 11.5 15.2°
Sets 10:49:52 0° 136° (SE) 4,896 11.4 15.3°
